DW3979 Weather Reports


time (UTC)temp
C
wind
direction
speed
KPH
gust
KPH
rain 1hr
cm
rain 24hr
cm
rain mn
cm
humidity
%
barometer
mb
20260507073026 14 275 0.0 3.2 0.00 0.00 0.00 36 1020.5
20260507072026 14 277 1.6 4.8 0.00 0.00 0.00 36 1020.4
20260507071525 14 258 3.2 4.8 0.00 0.00 0.00 36 1020.4
20260507071024 14 257 1.6 4.8 0.00 0.00 0.00 35 1020.2
20260507070024 15 269 1.6 4.8 0.00 0.00 0.00 35 1020.2
20260507065523 15 264 1.6 3.2 0.00 0.00 0.00 35 1020.2
20260507065024 15 269 1.6 4.8 0.00 0.00 0.00 35 1020.1
20260507064524 15 279 1.6 4.8 0.00 0.00 0.00 35 1020.1
20260507064024 15 261 3.2 4.8 0.00 0.00 0.00 34 1020.0
20260507063524 15 265 3.2 4.8 0.00 0.00 0.00 34 1020.0
20260507063024 15 285 1.6 4.8 0.00 0.00 0.00 34 1019.9
20260507062523 15 264 1.6 4.8 0.00 0.00 0.00 34 1019.9
20260507062023 15 255 1.6 4.8 0.00 0.00 0.00 34 1019.8
20260507061524 15 260 1.6 4.8 0.00 0.00 0.00 34 1019.8
20260507061024 15 257 1.6 4.8 0.00 0.00 0.00 33 1019.6
20260507055524 16 260 1.6 6.4 0.00 0.00 0.00 32 1019.6
20260507055024 16 260 1.6 6.4 0.00 0.00 0.00 32 1019.6
20260507054523 16 260 1.6 4.8 0.00 0.00 0.00 31 1019.6
20260507054024 16 248 1.6 4.8 0.00 0.00 0.00 31 1019.6
20260507053523 16 254 1.6 3.2 0.00 0.00 0.00 31 1019.6
20260507053024 16 257 1.6 4.8 0.00 0.00 0.00 31 1019.3
20260507052020 17 259 1.6 3.2 0.00 0.00 0.00 31 1019.2
20260507051520 17 258 1.6 4.8 0.00 0.00 0.00 31 1019.1
20260507051019 17 254 3.2 4.8 0.00 0.00 0.00 30 1019.1
20260507050014 17 274 3.2 8.0 0.00 0.00 0.00 30 1019.0
20260507045516 17 271 3.2 8.0 0.00 0.00 0.00 30 1019.0
20260507045014 17 259 3.2 6.4 0.00 0.00 0.00 29 1018.9
20260507044512 17 236 3.2 4.8 0.00 0.00 0.00 29 1018.9
20260507044011 18 265 1.6 4.8 0.00 0.00 0.00 29 1018.9
20260507043510 18 250 1.6 4.8 0.00 0.00 0.00 28 1018.9
20260507043011 18 254 1.6 4.8 0.00 0.00 0.00 28 1018.6
20260507042511 18 269 1.6 3.2 0.00 0.00 0.00 28 1018.4
20260507042010 18 253 0.0 4.8 0.00 0.00 0.00 28 1018.4
20260507041511 18 258 0.0 4.8 0.00 0.00 0.00 28 1018.2
20260507041009 18 261 0.0 1.6 0.00 0.00 0.00 27 1018.2
20260507040508 18 275 0.0 4.8 0.00 0.00 0.00 27 1018.1
20260507023500 20 173 11.3 29.0 0.00 0.00 0.00 25 1016.4
20260507023000 20 225 9.7 24.1 0.00 0.00 0.00 25 1016.4
20260507022500 20 186 9.7 22.5 0.00 0.00 0.00 25 1016.4
20260507022001 20 180 9.7 22.5 0.00 0.00 0.00 25 1016.3
20260507021500 20 188 11.3 22.5 0.00 0.00 0.00 25 1016.3
20260507020500 20 140 11.3 24.1 0.00 0.00 0.00 25 1016.2
20260507020001 20 201 9.7 19.3 0.00 0.00 0.00 25 1016.2
20260507015501 20 170 9.7 19.3 0.00 0.00 0.00 25 1016.2
20260507015000 21 184 8.0 22.5 0.00 0.00 0.00 25 1016.3
20260507014500 21 161 6.4 22.5 0.00 0.00 0.00 24 1016.4
20260507014001 21 159 6.4 17.7 0.00 0.00 0.00 24 1016.2
20260507013500 21 200 6.4 17.7 0.00 0.00 0.00 24 1016.0
20260507012958 21 173 4.8 12.9 0.00 0.00 0.00 24 1016.2
20260507011959 21 148 6.4 12.9 0.00 0.00 0.00 24 1016.0
20260507011458 21 169 6.4 12.9 0.00 0.00 0.00 23 1015.9
20260507010958 21 195 6.4 16.1 0.00 0.00 0.00 23 1016.0
20260507010459 21 226 4.8 16.1 0.00 0.00 0.00 22 1015.9
20260507005958 21 179 4.8 9.7 0.00 0.00 0.00 22 1015.9
20260507005458 21 170 3.2 9.7 0.00 0.00 0.00 23 1015.8
20260507004458 22 185 4.8 9.7 0.00 0.00 0.00 22 1015.8
20260507003458 22 173 4.8 12.9 0.00 0.03 0.00 21 1015.7
20260507002958 23 162 4.8 11.3 0.00 0.03 0.00 21 1015.9
20260507002457 23 149 6.4 14.5 0.00 0.03 0.00 21 1015.8
20260507001959 23 157 6.4 14.5 0.00 0.03 0.00 21 1015.6
20260507001459 23 136 4.8 11.3 0.00 0.03 0.00 20 1015.5
20260507000957 23 135 3.2 8.0 0.00 0.03 0.00 20 1015.7
20260506235954 23 116 3.2 4.8 0.00 0.03 0.00 20 1015.5
20260506235456 23 119 3.2 6.4 0.00 0.03 0.00 20 1015.4
20260506234457 23 150 3.2 6.4 0.00 0.03 0.00 20 1015.5
20260506233957 23 106 3.2 6.4 0.00 0.03 0.00 19 1015.5
20260506233457 23 157 1.6 6.4 0.00 0.03 0.00 19 1015.4
20260506232955 24 157 3.2 9.7 0.00 0.03 0.00 18 1015.5
20260506232455 25 151 4.8 9.7 0.00 0.03 0.00 19 1015.4
20260506231955 25 142 3.2 8.0 0.00 0.03 0.00 18 1015.5
20260506231455 25 176 3.2 8.0 0.00 0.03 0.00 19 1015.5
20260506230454 25 113 4.8 9.7 0.00 0.03 0.00 19 1015.6
20260506225952 25 132 3.2 8.0 0.00 0.03 0.00 19 1015.6
20260506224451 25 167 3.2 8.0 0.00 0.03 0.00 19 1015.7
20260506223950 24 166 3.2 6.4 0.00 0.03 0.00 19 1015.8
20260506223451 24 180 3.2 6.4 0.00 0.03 0.00 19 1015.8
20260506222950 25 169 1.6 6.4 0.00 0.03 0.00 18 1015.8
20260506222451 25 142 3.2 6.4 0.00 0.03 0.00 19 1015.9
20260506221950 25 147 1.6 8.0 0.00 0.03 0.00 18 1016.0
20260506221450 25 142 1.6 8.0 0.00 0.03 0.00 19 1016.0
20260506220950 25 89 1.6 6.4 0.00 0.03 0.00 18 1016.3
20260506220448 25 336 1.6 6.4 0.00 0.03 0.00 18 1016.3
20260506214945 24 109 3.2 6.4 0.00 0.03 0.00 20 1016.7
20260506213945 23 217 3.2 8.0 0.00 0.03 0.00 20 1016.8
20260506213442 23 196 3.2 6.4 0.00 0.03 0.00 20 1016.9
20260506212942 24 198 3.2 6.4 0.00 0.03 0.00 19 1017.1
20260506211942 25 259 1.6 6.4 0.00 0.03 0.00 19 1017.2
20260506210939 23 274 1.6 6.4 0.00 0.03 0.00 21 1017.3
20260506210436 23 306 1.6 6.4 0.00 0.03 0.00 22 1017.3
20260506205938 23 190 1.6 6.4 0.00 0.03 0.00 21 1017.3
20260506205434 23 180 1.6 6.4 0.00 0.03 0.00 21 1017.4
20260506204933 24 34 0.0 6.4 0.00 0.03 0.00 21 1017.4
20260506204433 24 89 1.6 8.0 0.00 0.03 0.00 20 1017.4
20260506203432 25 31 1.6 9.7 0.00 0.03 0.00 21 1017.4
20260506202432 25 50 3.2 9.7 0.00 0.03 0.00 21 1017.5
20260506201932 25 119 3.2 9.7 0.00 0.03 0.00 22 1017.5
20260506201432 24 117 1.6 6.4 0.00 0.03 0.00 21 1017.6
20260506200926 24 131 3.2 8.0 0.00 0.03 0.00 22 1017.7
20260506195924 24 127 1.6 4.8 0.00 0.03 0.00 22 1017.9
20260506195425 23 100 1.6 8.0 0.00 0.03 0.00 24 1017.9
20260506194924 23 306 1.6 8.0 0.00 0.03 0.00 22 1018.0
20260506194425 23 150 1.6 6.4 0.00 0.03 0.00 24 1018.0
20260506193925 23 125 1.6 6.4 0.00 0.03 0.00 24 1018.1
20260506193422 23 30 1.6 9.7 0.00 0.03 0.00 24 1018.1
20260506192922 23 328 1.6 9.7 0.00 0.03 0.00 23 1018.2
20260506192420 22 53 1.6 4.8 0.00 0.03 0.00 24 1018.3
20260506191420 22 49 1.6 4.8 0.00 0.03 0.00 25 1018.4
20260506190921 21 84 3.2 8.0 0.00 0.03 0.00 25 1018.4
20260506190420 21 5 3.2 8.0 0.00 0.03 0.00 24 1018.5
20260506185918 22 44 1.6 8.0 0.00 0.03 0.00 25 1018.5
20260506185419 21 105 1.6 4.8 0.00 0.03 0.00 25 1018.6
20260506184416 21 114 1.6 4.8 0.00 0.03 0.00 26 1018.8
20260506182913 21 116 1.6 4.8 0.00 0.03 0.00 26 1019.0
20260506182410 21 98 1.6 4.8 0.00 0.03 0.00 27 1019.2
20260506181908 20 110 1.6 4.8 0.00 0.03 0.00 27 1019.1
20260506181409 20 22 1.6 4.8 0.00 0.03 0.00 28 1019.2
20260506180906 20 355 1.6 8.0 0.00 0.03 0.00 28 1019.2
20260506175402 20 79 1.6 6.4 0.00 0.03 0.00 28 1019.1
20260506174902 20 140 1.6 6.4 0.00 0.03 0.00 28 1019.2
20260506174400 19 74 0.0 4.8 0.00 0.03 0.00 29 1019.3
20260506173858 18 40 1.6 4.8 0.00 0.03 0.00 30 1019.3
20260506172858 18 82 1.6 4.8 0.00 0.03 0.00 30 1019.3
20260506172358 18 11 1.6 4.8 0.00 0.03 0.00 30 1019.4
20260506171352 18 69 3.2 4.8 0.00 0.03 0.00 29 1019.4
20260506170850 18 119 1.6 4.8 0.00 0.03 0.00 30 1019.3
20260506170348 18 109 1.6 4.8 0.00 0.03 0.00 32 1019.3
20260506165848 17 80 1.6 4.8 0.00 0.03 0.00 31 1019.3
20260506164846 17 123 1.6 4.8 0.00 0.03 0.00 30 1019.3
20260506163344 17 120 1.6 3.2 0.00 0.03 0.00 33 1019.6
20260506162347 17 106 1.6 4.8 0.00 0.03 0.00 34 1019.4
20260506161842 16 101 1.6 3.2 0.00 0.03 0.00 34 1019.4
20260506161342 16 125 1.6 4.8 0.00 0.03 0.00 34 1019.4
20260506160842 16 95 1.6 4.8 0.00 0.03 0.00 34 1019.4
20260506160342 16 11 0.0 3.2 0.00 0.03 0.00 33 1019.4
20260506155842 16 46 0.0 3.2 0.00 0.03 0.00 34 1019.4
20260506155342 16 121 0.0 3.2 0.00 0.03 0.00 35 1019.4
20260506154842 16 126 0.0 3.2 0.00 0.03 0.00 35 1019.4
20260506154342 15 80 0.0 3.2 0.00 0.03 0.00 35 1019.4
20260506153840 15 52 0.0 3.2 0.00 0.03 0.00 36 1019.4
20260506153343 15 30 0.0 3.2 0.00 0.03 0.00 36 1019.3
20260506152838 15 103 0.0 3.2 0.00 0.03 0.00 38 1019.3
20260506152336 14 80 0.0 3.2 0.00 0.03 0.00 38 1019.3
20260506151836 14 80 0.0 4.8 0.00 0.03 0.00 39 1019.3
20260506151336 14 75 0.0 4.8 0.00 0.03 0.00 39 1019.3
20260506150336 13 55 0.0 3.2 0.00 0.03 0.00 38 1019.3
20260506145830 13 75 0.0 3.2 0.00 0.03 0.00 38 1019.2
20260506145328 13 93 0.0 3.2 0.00 0.03 0.00 40 1019.2
20260506144828 13 355 0.0 3.2 0.00 0.03 0.00 39 1019.2
20260506144329 13 336 0.0 0.0 0.00 0.03 0.00 40 1019.1
20260506143824 13 331 0.0 0.0 0.00 0.03 0.00 41 1019.1
20260506143322 13 327 0.0 0.0 0.00 0.03 0.00 41 1019.1
20260506142823 12 327 0.0 0.0 0.00 0.03 0.00 43 1019.1
20260506142322 12 326 0.0 3.2 0.00 0.03 0.00 43 1019.1
20260506141822 12 326 0.0 3.2 0.00 0.03 0.00 44 1019.1
20260506141322 11 214 0.0 0.0 0.00 0.03 0.00 45 1019.0
20260506140822 11 214 0.0 0.0 0.00 0.03 0.00 46 1018.9
20260506140320 11 214 0.0 0.0 0.00 0.03 0.00 47 1018.9
20260506135318 10 214 0.0 0.0 0.00 0.03 0.00 49 1018.9
20260506134316 9 214 0.0 0.0 0.00 0.03 0.00 50 1018.9
20260506133816 9 214 0.0 0.0 0.00 0.03 0.00 51 1018.8
20260506133316 9 214 0.0 0.0 0.00 0.03 0.00 52 1018.6
20260506132819 8 214 0.0 0.0 0.00 0.03 0.00 53 1018.6
20260506132314 8 214 0.0 0.0 0.00 0.03 0.00 54 1018.6
20260506131815 8 214 0.0 0.0 0.00 0.03 0.00 54 1018.5
20260506131312 8 214 0.0 0.0 0.00 0.03 0.00 54 1018.4
20260506130306 7 214 0.0 0.0 0.00 0.03 0.00 54 1018.3
20260506125804 7 214 0.0 0.0 0.00 0.03 0.00 54 1018.2
20260506125304 7 214 0.0 0.0 0.00 0.03 0.00 54 1018.2
20260506124802 7 214 0.0 0.0 0.00 0.03 0.00 54 1018.2
20260506124302 7 214 0.0 0.0 0.00 0.03 0.00 54 1018.2
20260506123802 7 214 0.0 0.0 0.00 0.03 0.00 54 1018.1
20260506123302 7 214 0.0 0.0 0.00 0.03 0.00 54 1018.1
20260506122802 7 214 0.0 0.0 0.00 0.03 0.00 55 1018.0
20260506122305 7 214 0.0 0.0 0.00 0.03 0.00 55 1018.0
20260506121803 7 214 0.0 0.0 0.00 0.03 0.00 55 1017.9
20260506121302 7 214 0.0 0.0 0.00 0.03 0.00 55 1017.6
20260506120800 7 214 0.0 0.0 0.00 0.03 0.00 54 1017.6
20260506120301 7 214 0.0 0.0 0.00 0.03 0.00 54 1017.6
20260506115758 7 214 0.0 0.0 0.00 0.03 0.00 55 1017.6
20260506115257 7 214 0.0 0.0 0.00 0.03 0.00 54 1017.7
20260506114254 7 214 0.0 0.0 0.00 0.03 0.00 54 1017.7
20260506113753 7 214 0.0 0.0 0.00 0.03 0.00 54 1017.6
20260506113248 7 214 0.0 0.0 0.00 0.03 0.00 53 1017.7
20260506111746 7 214 0.0 0.0 0.00 0.03 0.00 53 1017.6
20260506111249 7 214 0.0 0.0 0.00 0.03 0.00 53 1017.5
20260506110745 7 214 0.0 0.0 0.00 0.03 0.00 52 1017.4
20260506110244 7 214 0.0 0.0 0.00 0.03 0.00 52 1017.4
20260506105743 8 214 0.0 0.0 0.00 0.03 0.00 51 1017.4
20260506105242 8 214 0.0 0.0 0.00 0.03 0.00 50 1017.4
20260506104742 8 214 0.0 0.0 0.00 0.03 0.00 50 1017.3
20260506103740 8 214 0.0 0.0 0.00 0.03 0.00 49 1017.3
20260506103237 9 209 0.0 0.0 0.00 0.03 0.00 48 1017.2
20260506102736 9 209 0.0 0.0 0.00 0.03 0.00 48 1017.2
20260506102238 9 209 0.0 0.0 0.00 0.03 0.00 48 1017.1
20260506101733 9 209 1.6 3.2 0.00 0.03 0.00 48 1017.1
20260506101227 9 209 1.6 4.8 0.00 0.03 0.00 48 1017.1
20260506100728 9 209 3.2 4.8 0.00 0.03 0.00 48 1017.1
20260506095726 8 217 1.6 4.8 0.00 0.03 0.00 49 1016.9
20260506095222 8 267 0.0 0.0 0.00 0.03 0.00 49 1017.1
20260506091714 9 270 0.0 0.0 0.00 0.03 0.00 49 1016.8
20260506091216 9 270 0.0 0.0 0.00 0.03 0.00 50 1016.8
20260506090708 9 270 0.0 0.0 0.00 0.03 0.00 49 1016.9
20260506090206 9 274 0.0 0.0 0.00 0.03 0.00 48 1016.9
20260506085204 9 313 0.0 0.0 0.00 0.03 0.00 49 1016.8
20260506084702 9 313 0.0 0.0 0.00 0.03 0.00 48 1016.7
20260506084202 10 313 0.0 1.6 0.00 0.03 0.00 48 1016.6
20260506083158 10 313 0.0 3.2 0.00 0.03 0.00 45 1016.6
20260506082657 10 264 1.6 6.4 0.00 0.03 0.00 45 1016.6
20260506082156 10 285 3.2 6.4 0.00 0.03 0.00 44 1016.6
20260506081657 10 275 1.6 4.8 0.00 0.03 0.00 44 1016.6
20260506080654 10 263 1.6 3.2 0.00 0.03 0.00 43 1016.6
20260506080152 10 245 1.6 3.2 0.00 0.03 0.00 43 1016.6